DW3793 Weather Reports


time (UTC)temp
C
wind
direction
speed
KPH
gust
KPH
rain 1hr
cm
rain 24hr
cm
rain mn
cm
humidity
%
barometer
mb
20260503054541 13 296 4.8 11.3 0.00 0.00 0.00 53 1015.0
20260503053042 13 296 3.2 8.0 0.00 0.00 0.00 54 1015.0
20260503051538 14 319 3.2 9.7 0.00 0.00 0.00 53 1015.0
20260503050037 14 301 0.0 4.8 0.00 0.00 0.00 53 1015.0
20260503044536 16 313 1.6 4.8 0.00 0.00 0.00 48 1014.9
20260503043034 17 184 3.2 12.9 0.00 0.00 0.00 42 1014.7
20260503041534 17 96 0.0 4.8 0.00 0.00 0.00 41 1014.4
20260503040037 18 305 1.6 8.0 0.00 0.00 0.00 38 1014.1
20260503034533 17 269 1.6 4.8 0.00 0.00 0.00 41 1014.0
20260503033004 17 297 4.8 8.0 0.00 0.00 0.00 44 1013.8
20260503031503 17 290 4.8 8.0 0.00 0.00 0.00 46 1013.6
20260503030059 18 286 4.8 8.0 0.00 0.00 0.00 44 1013.5
20260503024604 21 259 3.2 11.3 0.00 0.00 0.00 31 1013.3
20260503023105 21 244 1.6 8.0 0.00 0.00 0.00 31 1013.3
20260503021606 21 173 6.4 17.7 0.00 0.00 0.00 32 1013.4
20260503020027 21 128 12.9 22.5 0.00 0.00 0.00 34 1013.4
20260503014526 23 171 9.7 19.3 0.00 0.00 0.00 34 1013.4
20260503013106 23 146 1.6 3.2 0.00 0.00 0.00 27 1013.4
20260503011604 23 149 1.6 6.4 0.00 0.00 0.00 28 1013.4
20260503010059 24 126 1.6 6.4 0.00 0.00 0.00 23 1013.4
20260503004553 25 126 0.0 3.2 0.00 0.00 0.00 22 1013.4
20260503003100 25 146 1.6 11.3 0.00 0.00 0.00 26 1013.4
20260503001552 25 128 4.8 11.3 0.00 0.00 0.00 22 1013.4
20260503000100 25 96 6.4 14.5 0.00 0.00 0.00 21 1013.4
20260502234547 25 93 3.2 11.3 0.00 0.00 0.00 23 1013.5
20260502233050 25 123 3.2 9.7 0.00 0.00 0.00 20 1013.6
20260502231546 26 40 3.2 8.0 0.00 0.00 0.00 19 1013.6
20260502230040 26 325 1.6 8.0 0.00 0.00 0.00 19 1013.8
20260502224534 24 90 3.2 14.5 0.00 0.00 0.00 23 1013.9
20260502223033 24 154 3.2 14.5 0.00 0.00 0.00 29 1014.0
20260502221529 23 154 8.0 17.7 0.00 0.00 0.00 35 1014.2
20260502220058 23 192 8.0 14.5 0.00 0.00 0.00 34 1014.4
20260502214556 23 175 3.2 8.0 0.00 0.00 0.00 29 1014.5
20260502213029 23 142 4.8 8.0 0.00 0.00 0.00 35 1014.7
20260502211523 23 148 6.4 12.9 0.00 0.00 0.00 37 1014.8
20260502210016 23 140 8.0 14.5 0.00 0.00 0.00 35 1014.9
20260502204522 22 148 6.4 14.5 0.00 0.00 0.00 38 1015.1
20260502203016 22 140 1.6 12.9 0.00 0.00 0.00 35 1015.2
20260502201509 22 138 3.2 8.0 0.00 0.00 0.00 42 1015.4
20260502200004 22 136 1.6 9.7 0.00 0.00 0.00 42 1015.6
20260502194501 21 163 0.0 6.4 0.00 0.00 0.00 44 1015.7
20260502193100 20 144 3.2 11.3 0.00 0.00 0.00 46 1015.9
20260502191603 21 186 0.0 8.0 0.00 0.00 0.00 43 1016.0
20260502190052 19 147 3.2 9.7 0.00 0.00 0.00 45 1016.2
20260502184548 19 107 3.2 11.3 0.00 0.00 0.00 45 1016.4
20260502183047 18 138 4.8 11.3 0.00 0.00 0.00 46 1016.5
20260502181550 17 153 3.2 11.3 0.00 0.00 0.00 53 1016.7
20260502163102 14 132 1.6 6.4 0.00 0.00 0.00 55 1017.0
20260502161555 14 143 0.0 6.4 0.00 0.00 0.00 58 1017.1
20260502151548 12 87 0.0 3.2 0.00 0.00 0.00 62 1017.2
20260502123031 6 300 1.6 4.8 0.00 0.00 0.00 72 1016.7
20260502121521 6 292 1.6 4.8 0.00 0.00 0.00 72 1016.8
20260502114518 7 275 0.0 3.2 0.00 0.00 0.00 70 1016.7
20260502113018 7 297 1.6 4.8 0.00 0.00 0.00 72 1016.6
20260502111514 7 289 1.6 6.4 0.00 0.00 0.00 71 1016.6
20260502110012 7 290 1.6 4.8 0.00 0.00 0.00 69 1016.6
20260502104538 7 298 3.2 4.8 0.00 0.00 0.00 70 1016.6
20260502103005 8 301 0.0 4.8 0.00 0.00 0.00 69 1016.5
20260502101700 8 273 0.0 4.8 0.00 0.00 0.00 67 1016.6
20260502091522 10 304 0.0 3.2 0.00 0.00 0.00 60 1016.7